This is the latest recevied weather packets stored in our database for station/object AB1AU. If no packets are shown the sender has not sent any weather packets the latest 10 day(s).
| Time | Temp. | Humidity | Pressure | Rain* | Wind** | Luminosity | Snow |
|---|---|---|---|---|---|---|---|
| 1777836183 | 9.44° C | 73% | 1004.6 hPa | 0 mm | - | 181 W/m² | - |
| 1777835880 | 9.44° C | 74% | 1004.7 hPa | 0 mm | - | 176 W/m² | - |
| 1777835577 | 9.44° C | 76% | 1004.7 hPa | 0 mm | - | 189 W/m² | - |
| 1777835274 | 8.89° C | 75% | 1004.9 hPa | 0 mm | - | 195 W/m² | - |
| 1777834971 | 8.89° C | 76% | 1004.9 hPa | 0 mm | - | 187 W/m² | - |
| 1777834668 | 8.89° C | 77% | 1005 hPa | 0 mm | - | 187 W/m² | - |
| 1777834364 | 8.89° C | 78% | 1005 hPa | 0 mm | - | 199 W/m² | - |
| 1777834058 | 8.89° C | 79% | 1005.1 hPa | 0 mm | - | 205 W/m² | - |
| 1777833755 | 8.33° C | 79% | 1005.1 hPa | 0 mm | - | 220 W/m² | - |
| 1777833451 | 8.33° C | 80% | 1005.2 hPa | 0 mm | - | 201 W/m² | - |
| 1777833149 | 8.33° C | 79% | 1005.4 hPa | 0 mm | - | 188 W/m² | - |
| 1777832846 | 8.33° C | 81% | 1005.2 hPa | 0 mm | - | 177 W/m² | - |
| 1777832545 | 7.78° C | 82% | 1005.4 hPa | 0 mm | - | 181 W/m² | - |
| 1777832242 | 7.78° C | 82% | 1005.4 hPa | 0 mm | - | 170 W/m² | - |
| 1777831939 | 7.78° C | 83% | 1005.3 hPa | 0 mm | - | 153 W/m² | - |
| 1777831635 | 7.78° C | 85% | 1005.5 hPa | 0 mm | - | 147 W/m² | - |
| 1777831334 | 7.22° C | 85% | 1005.5 hPa | 0 mm | - | 146 W/m² | - |
| 1777831030 | 7.22° C | 85% | 1005.4 hPa | 0 mm | - | 154 W/m² | - |
| 1777830728 | 7.22° C | 87% | 1005.5 hPa | 0 mm | - | 138 W/m² | - |
| 1777830423 | 7.22° C | 88% | 1005.6 hPa | 0 mm | - | 177 W/m² | - |
| 1777830121 | 6.67° C | 87% | 1005.5 hPa | 0 mm | - | 174 W/m² | - |
| 1777829816 | 6.67° C | 88% | 1005.3 hPa | 0 mm | - | 177 W/m² | - |
| 1777829512 | 6.67° C | 89% | 1005.5 hPa | 0 mm | - | 187 W/m² | - |
| 1777829210 | 6.67° C | 89% | 1005.5 hPa | 1.78 mm | - | 173 W/m² | - |
| 1777828907 | 6.67° C | 90% | 1005.6 hPa | 1.78 mm | - | 147 W/m² | - |
* Rain latest hour (hover to see other rain measurements)
** Current wind speed in m/s (hover to see current wind gust speed)